RANGE-B
1 43772U 18099Q 20114.45029074 .00000036 00000-0 85568-5 0 9995
2 43772 097.7152 187.2280 0014358 014.2484 345.9139 14.95133917075692
RANGE-A
1 43773U 18099R 20114.34635965 .00000592 00000-0 59420-4 0 9990
2 43773 097.7032 186.3612 0013775 015.2754 344.8880 14.94942959075674
MOVE-II
1 43780U 18099Y 20114.45397733 .00000187 00000-0 22090-4 0 9991
2 43780 97.7087 186.9592 0013934 24.7233 335.4653 14.95346081 75690
SNUSat 2
1 43782U 18099AA 20114.46135046 .00000202 00000-0 23562-4 0 9994
2 43782 097.7081 186.9836 0012905 014.3498 345.8086 14.95224860075709
SnugLite
1 43784U 18099AC 20114.43327675 .00000177 00000-0 21281-4 0 9991
2 43784 097.7051 186.7978 0015581 021.4389 338.7482 14.95322443075712
ITASat 1
1 43786U 18099AE 20114.49967479 .00000177 00000-0 21285-4 0 9995
2 43786 097.7105 187.2093 0015682 020.2544 339.9295 14.95301407075723
EAGLET 1
1 43790U 18099AJ 20114.77325259 -.00000088 00000-0 -27604-5 0 9990
2 43790 97.7093 187.7089 0014123 24.2295 335.9587 14.95682789 75477
ESEO
1 43792U 18099AL 20114.77988598 -.00000346 00000-0 -25942-4 0 9992
2 43792 97.7065 187.5661 0013800 20.9944 339.1840 14.95586722 75532
CSIM
1 43793U 18099AM 20114.23824213 .00000162 00000-0 19559-4 0 9998
2 43793 097.7060 186.9836 0013373 021.3079 338.8696 14.95995530075439
Astrocast 0.1
1 43798U 18099AS 20114.43437417 .00000005 00000-0 56394-5 0 9996
2 43798 097.7089 187.4636 0012535 006.7840 353.3548 14.95851784075723
JO-97
1 43803U 18099AX 20114.78820866 .00000087 00000-0 13013-4 0 9995
2 43803 97.7061 187.3253 0015493 19.3563 340.8243 14.95468232 75761
Suomi 100
1 43804U 18099AY 20114.45410091 .00000012 00000-0 62885-5 0 9995
2 43804 097.7059 186.9874 0015592 020.4485 339.7357 14.95458267075725
Al Farabi 2
1 43805U 18099AZ 20114.76712619 .00000285 00000-0 30850-4 0 9999
2 43805 97.7069 187.3642 0015690 19.9862 340.1971 14.95574191 75774
PWSat 2
1 43814U 18099BJ 20114.18150905 .00026431 00000-0 16289-2 0 9998
2 43814 97.7815 193.8924 0004989 88.7223 271.4774 15.09926044 75379
CHOMPTT
1 43855U 18104G 20114.57121179 .00001236 00000-0 50887-4 0 9994
2 43855 085.0389 211.4970 0015078 253.8185 106.1400 15.22885987075174
ISAT
1 43879U 18111D 20114.72633360 -.00000032 00000-0 22518-5 0 9990
2 43879 97.7055 23.0288 0014575 68.9586 291.3192 14.96205634 70300
UWE-4
1 43880U 18111E 20114.51486079 .00000021 00000-0 69821-5 0 9997
2 43880 97.7070 23.0615 0013933 70.4813 289.7912 14.96439998 70281
Sparrow
1 43881U 18111F 20114.49918894 .00000859 00000-0 80564-4 0 9995
2 43881 097.7075 023.1094 0014209 069.8918 290.3831 14.96498766072271
Lume 1
1 43908U 18111AJ 20114.52123201 .00001211 00000-0 51196-4 0 9991
2 43908 97.2704 16.0613 0020802 342.1829 17.8677 15.24937916 73657
FO-98
1 43933U 19003B 20114.91215475 .00000832 00000-0 39186-4 0 9991
2 43933 97.2366 166.7225 0019656 75.0091 45.8727 15.22039103 70236
FO-99
1 43937U 19003F 20114.90742809 .00001573 00000-0 66707-4 0 9992
2 43937 97.2330 167.8053 0025698 59.8160 114.4718 15.24264972 70321
Delphini 1
1 44030U 98067PW 20114.55623567 .00021102 00000-0 22032-3 0 9996
2 44030 051.6350 232.9618 0003780 246.8746 113.1851 15.64443156069913
MYSat 1
1 44045U 18092F 20114.55923490 .00002865 00000-0 90075-4 0 9998
2 44045 051.6460 308.7718 0012405 124.0428 236.1727 15.36418736066855
AstroCast 0.2
1 44083U 19018F 20114.77171345 .00000750 00000-0 36345-4 0 9998
2 44083 97.4257 176.5601 0013363 11.3165 348.8369 15.21537181 59069
AISTechSat 3
1 44103U 19018AB 20114.84450385 .00000891 00000-0 40736-4 0 9998
2 44103 97.4133 176.7660 0014224 25.7316 84.2432 15.23080098 59127
AISat 1
1 44104U 19018AC 20114.46622850 .00000948 00000-0 32683-4 0 9990
2 44104 097.4675 183.7835 0059544 049.2904 311.3487 15.30976492059392
Raavana-1
1 44329U 98067QE 20114.65212517 .00012546 00000-0 17733-3 0 9991
2 44329 51.6394 248.6982 0005945 157.8570 202.2680 15.56930460 48468
Uguisu
1 44330U 98067QF 20114.53359582 .00011982 00000-0 17015-3 0 9990
2 44330 051.6386 249.4027 0005931 155.8478 204.2793 15.56854947048428
NepaliSat-1
1 44331U 98067QG 20114.38878246 .00012420 00000-0 17548-3 0 9996
2 44331 051.6389 249.9386 0005981 158.2388 201.8859 15.56951741048412
Prox-1
1 44339U 19036A 20114.32314282 .00001087 00000-0 20866-3 0 9996
2 44339 024.0029 098.7706 0010236 268.4214 091.5117 14.52942046044108
Oculus-ASR
1 44348U 19036K 20114.44630936 .00016606 00000-0 25025-3 0 9991
2 44348 28.5180 23.8340 0370960 81.3221 282.9216 15.01675749 45522
Armadillo
1 44352U 19036P 20114.42217704 .00024152 00000-0 36404-3 0 9996
2 44352 28.5307 21.0509 0359774 85.2219 278.9363 15.04037787 45496
NO-104
1 44354U 19036R 20114.08257396 .00016061 00000-0 23792-3 0 9997
2 44354 028.5305 024.0487 0367908 079.9896 284.1998 15.02635176045489
NO-103
1 44355U 19036S 20114.40854775 .00026554 00000-0 37865-3 0 9992
2 44355 028.5305 015.9757 0349611 093.0928 270.9718 15.07263048045598
CP9
1 44360U 19036X 20114.86325783 .00045511 -50461-5 53777-3 0 9996
2 44360 28.5152 2.4710 0335163 115.5425 248.0205 15.13599503 45630
Move-IIb
1 44398U 19038N 20114.63330596 .00001406 00000-0 84684-4 0 9997
2 44398 97.5314 76.5846 0024221 319.7852 40.1585 15.12214372 44291
SONATE
1 44400U 19038Q 20114.78783327 .00000559 00000-0 36283-4 0 9991
2 44400 97.5348 76.7555 0024122 317.3182 42.6174 15.11906913 44313
BeeSat 9
1 44412U 19038AC 20114.41701033 .00000917 00000-0 56631-4 0 9995
2 44412 097.5335 076.4565 0021854 324.8674 035.1114 15.12216210043953
JAISAT-1
1 44419U 19038F 20114.65331245 .00001031 00000-0 62380-4 0 9998
2 44419 97.5338 76.9125 0020641 323.5689 36.4136 15.12700226 44319
LightSail-2
1 44420U 19036AC 20114.26515550 .00005651 00000-0 12323-2 0 9990
2 44420 024.0110 096.4191 0013555 228.6838 131.2437 14.55193007042271
Taurus 1
1 44530U 19059C 20114.77265166 .00000863 00000-0 25768-3 0 9996
2 44530 98.5684 195.3356 0013458 327.1900 32.8465 14.45427741 32443
MO-106
1 44830U 19084G 20114.72559960 .00046788 00000-0 32588-3 0 9994
2 44830 96.9829 343.5298 0032533 88.5446 271.9546 15.73478897 21836
TRSI-Sat
1 44831U 19084H 20114.09078759 .00049703 00000-0 34848-3 0 9998
2 44831 096.9837 342.9073 0032716 089.8725 270.6289 15.73305886021744
MO-105
1 44832U 19084J 20114.56718698 .00049832 00000-0 33671-3 0 9990
2 44832 096.9840 343.4543 0031546 087.9625 272.5253 15.74213533021813
Duchifat 3
1 44854U 19089C 20114.87521532 .00000449 00000-0 42745-4 0 9996
2 44854 36.9661 60.8864 0009153 336.6533 23.3818 14.99030347 20105
OPS-SAT
1 44878U 19092F 20114.49885994 -.00000066 00000-0 00000-0 0 9999
2 44878 097.4666 298.7092 0014345 181.5392 178.5834 15.15382870019213
FloripaSat 1
1 44885U 19093G 20114.70323433 .00000255 00000-0 38890-4 0 9998
2 44885 97.9601 191.2152 0013705 221.3787 138.6399 14.82005035 18590
SwampSat-2
1 45115U 19071E 20114.77238357 .00012075 00000-0 36760-3 0 9994
2 45115 51.6414 267.3493 0013254 217.8939 142.1111 15.34328097 12722
HuskySat-1
1 45119U 19071J 20114.59058203 .00001736 00000-0 64459-4 0 9997
2 45119 051.6424 268.3815 0012108 213.6878 146.3335 15.33389012012704
